Wind_Speed
2 4 8 11 14 16 16 17 18 19 19 20 21 21 21 21 21 22 22 22 21 21 20 20 19 19 18 18 18 18 18 19 19 20 22 23 25 25 25 25 24 23 23 22 22 22 22 22 22 22 21 21 21 21 20 20 20 21 21 21 21 21 22 23 22 22 22 22 21 21 20 19 19 19 19 20 21 21 21 21 22 23 24 23 23
2 3 6 9 12 14 15 16 17 18 18 18 20 21 20 20 20 20 21 21 21 21 20 20 19 19 19 18 18 17 17 18 19 19 21 22 23 25 25 25 24 24 23 23 23 22 22 22 22 22 22 21 21 21 21 21 20 20 20 20 20 20 21 21 21 20 20 21 21 21 20 19 19 19 18 19 20 20 19 19 20 21 23 24 24
5 3 4 7 10 12 13 14 15 17 17 17 17 19 20 19 19 19 19 20 20 20 20 20 20 19 19 19 18 18 18 18 19 19 20 21 22 23 24 25 25 24 23 23 23 23 22 22 22 22 22 22 22 21 21 21 20 19 19 19 19 19 19 20 20 19 19 19 19 19 18 18 18 18 18 19 20 20 19 19 20 20 21 23 23
8 5 3 6 8 10 12 12 13 15 16 16 16 16 18 18 18 18 18 18 19 19 19 19 19 19 19 19 19 19 18 19 19 19 20 20 21 22 23 24 25 25 24 23 23 23 23 22 23 23 23 23 22 22 21 21 20 19 19 19 18 18 18 19 19 19 19 18 17 17 17 17 18 18 18 19 19 19 18 19 20 19 18 19 20
10 7 4 5 8 9 11 11 11 12 14 15 14 14 15 16 17 17 17 17 17 18 19 18 19 18 18 18 18 18 18 19 20 20 20 20 21 21 22 23 24 25 25 24 23 23 23 23 23 23 23 23 23 23 22 21 21 20 19 18 18 18 17 18 18 18 19 18 18 18 18 18 18 18 18 18 18 19 17 17 19 18 16 17 18
11 9 7 5 7 8 9 10 9 9 11 13 13 12 13 14 15 16 16 16 16 17 17 18 18 17 17 17 18 18 18 19 20 20 21 21 21 22 22 22 23 25 25 25 24 24 23 23 23 23 24 24 24 24 23 22 22 21 20 19 18 18 18 18 18 18 18 18 19 19 19 19 18 19 18 17 17 19 17 16 18 18 18 19 19
13 10 9 8 7 8 7 8 8 8 9 11 12 11 11 12 13 14 14 15 15 16 16 16 16 16 16 16 17 17 17 19 20 21 21 22 22 22 22 22 22 24 25 25 25 24 24 24 24 24 24 24 24 24 24 23 23 22 21 20 20 19 19 19 19 18 18 18 19 19 19 19 18 18 18 17 17 18 17 16 18 20 20 20 20
17 14 12 11 9 8 7 7 6 6 7 9 11 11 11 10 10 12 13 13 14 14 15 15 15 15 15 15 16 16 17 18 19 20 21 22 22 23 23 22 22 23 24 25 25 25 25 25 24 24 25 25 25 25 24 24 24 23 23 22 21 21 21 20 20 20 20 19 19 19 19 18 18 18 18 18 17 17 16 17 18 18 18 18 19
20 17 15 14 12 10 9 7 6 5 6 7 10 11 12 11 9 10 12 13 13 13 13 13 14 14 14 15 15 15 16 17 18 20 20 21 22 22 23 22 22 22 23 23 24 25 25 25 25 25 25 25 26 25 25 24 24 24 23 23 23 22 22 22 21 21 21 21 21 20 20 19 19 19 18 18 18 18 17 18 18 17 16 18 19
22 20 18 17 15 12 11 9 7 5 5 6 8 10 12 12 11 9 10 12 13 12 12 12 13 13 13 14 14 15 15 16 17 18 19 20 21 22 22 22 22 22 22 22 22 24 24 25 25 26 26 26 26 26 26 25 25 24 24 24 24 23 23 23 22 22 22 22 22 22 22 22 21 21 20 20 19 19 19 19 19 18 17 19 19
24 21 20 19 18 15 13 11 9 7 6 5 6 7 8 11 12 10 10 10 12 12 12 12 12 12 12 12 13 13 14 15 16 16 17 18 19 21 22 22 22 22 21 21 21 22 23 24 25 25 26 26 26 26 26 26 26 25 24 24 24 24 24 24 23 23 23 23 23 23 23 23 23 22 22 21 20 20 20 19 20 20 20 19 18
27 24 23 22 20 18 16 14 12 10 8 6 5 4 4 6 9 10 9 9 10 11 11 12 12 12 12 11 11 12 13 13 14 15 16 16 17 19 20 21 22 21 21 21 20 20 21 22 23 24 25 25 26 26 26 26 26 26 25 25 25 24 24 24 24 24 24 24 24 24 24 24 24 23 23 22 21 20 20 20 20 21 20 19 19
30 27 26 25 23 21 19 16 15 12 10 8 6 4 3 4 6 7 7 6 6 8 10 10 12 13 12 12 11 12 12 12 13 14 15 15 16 17 18 19 20 21 21 20 20 19 19 20 21 22 23 23 24 25 25 25 26 26 26 25 25 25 25 24 24 24 24 24 25 25 25 25 24 24 23 23 22 22 21 21 21 20 19 20 20
31 29 28 26 25 23 21 19 18 15 13 11 9 7 5 4 4 5 6 5 4 5 7 8 10 12 13 12 12 12 13 13 13 13 14 14 15 15 16 17 18 18 19 20 20 19 19 19 20 20 21 21 22 23 24 24 25 25 25 25 26 26 25 25 25 25 24 24 25 25 25 25 25 25 24 24 23 23 22 22 22 21 20 20 20
32 31 29 28 27 25 24 22 20 18 16 14 12 11 9 7 4 4 4 5 3 3 3 5 7 10 11 12 12 12 13 14 14 13 13 13 13 13 14 15 15 16 17 18 18 19 18 19 19 19 19 20 20 21 22 23 24 24 25 25 25 26 26 26 26 25 25 25 25 25 26 26 26 26 26 25 25 25 24 23 23 22 22 21 21
34 33 31 30 29 28 27 25 23 21 19 17 15 14 13 11 8 5 2 3 3 3 3 2 4 7 9 10 11 12 13 14 14 14 13 12 12 12 11 12 13 14 14 15 16 17 17 17 18 18 19 19 19 20 20 20 22 23 24 25 25 26 26 26 26 26 26 26 26 26 26 27 28 28 28 27 26 26 25 25 24 24 24 23 23
37 36 34 32 32 31 30 28 26 24 22 21 20 18 16 14 12 9 6 4 3 3 3 3 2 4 6 8 8 9 10 13 14 15 14 13 12 12 11 11 11 11 12 13 13 14 15 15 16 17 17 18 18 18 19 19 20 21 22 23 24 25 26 26 27 27 27 27 27 27 27 27 28 29 29 29 28 27 26 26 26 25 25 25 24
40 39 35 33 33 33 32 31 29 27 26 25 24 22 19 17 16 14 12 9 6 3 3 3 2 3 5 6 6 6 7 10 12 14 15 15 13 12 12 11 10 10 10 10 11 12 12 12 13 14 15 16 17 17 18 19 19 19 20 21 23 24 25 25 26 26 26 27 27 27 26 26 27 28 29 29 29 28 27 27 26 26 26 25 25
43 40 37 35 33 34 35 34 33 31 30 30 28 26 23 20 19 18 16 14 10 7 5 4 4 4 5 6 4 2 3 6 9 11 13 14 13 12 12 12 11 10 9 9 9 10 10 10 10 11 11 12 14 15 16 17 18 18 19 20 21 23 24 24 25 25 26 26 26 26 26 26 26 27 28 28 29 28 28 27 27 26 26 25 24
45 43 40 38 35 36 37 37 36 35 34 33 31 29 27 24 22 21 19 17 15 12 9 8 7 6 6 4 3 1 1 4 6 8 11 11 11 10 10 10 11 11 10 10 9 8 8 9 9 8 9 9 10 11 13 14 15 16 17 18 19 21 22 23 24 24 25 25 25 25 25 25 25 26 27 28 28 28 28 27 27 26 25 24 24
47 45 44 42 40 39 39 40 39 38 37 36 34 31 29 27 25 24 22 20 19 15 13 12 11 10 7 3 4 5 3 5 4 4 6 8 9 8 7 8 9 9 9 9 9 9 8 8 8 8 8 7 8 9 10 11 12 14 15 15 17 18 20 21 22 23 23 23 23 23 24 24 24 25 26 27 27 27 27 26 26 25 24 24 23
47 45 44 44 43 41 41 41 41 40 39 37 36 34 32 30 28 28 26 24 22 20 17 16 16 15 10 6 6 7 7 6 4 1 2 3 5 6 6 7 8 8 7 7 8 8 8 7 7 7 7 7 7 7 8 9 10 11 13 13 14 15 16 18 19 20 21 21 21 21 22 22 22 23 24 26 26 26 26 25 24 23 23 23 22
47 45 44 45 46 45 44 43 41 40 39 38 38 36 34 33 32 31 29 27 26 25 22 19 19 19 16 11 9 10 10 10 8 4 3 3 2 2 3 4 6 6 6 5 6 7 7 7 6 6 6 6 6 6 6 7 7 9 10 11 12 12 13 15 16 17 18 19 19 19 20 20 20 21 22 24 25 25 25 24 23 22 22 21 21
49 48 47 47 48 47 46 44 41 41 41 40 40 39 36 35 35 34 32 30 29 28 26 23 21 22 21 17 14 13 12 12 12 9 6 7 7 6 5 3 3 3 4 5 5 5 6 6 5 5 5 5 6 6 6 6 6 6 7 8 9 10 11 12 12 13 15 16 16 17 18 18 18 18 20 22 23 23 23 22 21 20 20 20 20
51 51 50 48 47 48 46 43 41 42 44 44 43 41 38 39 40 37 34 33 32 30 28 26 24 25 25 22 19 16 15 15 14 11 10 10 10 10 10 8 5 3 2 3 4 5 5 5 5 4 4 5 5 6 6 6 6 6 6 6 7 8 9 10 10 11 12 14 15 16 16 16 16 17 18 20 21 22 22 21 20 19 18 18 18
53 52 51 47 46 46 46 45 42 42 45 46 46 44 42 42 42 41 38 36 35 33 31 29 27 26 27 26 23 20 18 17 16 15 14 13 12 10 10 9 9 9 8 6 6 7 6 6 5 5 4 4 4 5 6 6 7 7 7 7 7 8 8 9 10 11 11 12 14 15 16 16 16 16 16 18 19 20 20 19 18 17 16 16 17
56 53 51 47 45 46 46 48 48 46 45 44 45 46 46 45 44 43 42 40 38 36 34 31 28 28 29 28 26 25 23 20 19 18 18 17 15 13 12 11 11 13 12 11 11 10 9 8 7 7 6 6 5 5 6 7 8 8 8 9 9 10 10 10 11 12 12 13 13 15 16 16 16 16 15 16 17 18 18 17 16 15 14 14 15
58 54 52 49 47 49 49 50 52 53 51 48 46 47 47 47 46 46 45 44 42 40 37 34 31 30 30 31 29 27 26 25 22 21 20 19 18 17 15 14 14 15 15 15 14 13 12 11 10 9 8 7 7 6 6 7 8 8 8 9 10 10 10 10 11 12 13 13 14 14 15 16 17 16 15 14 15 15 15 15 14 13 12 12 13
59 55 53 53 53 54 54 54 54 56 57 55 52 50 48 48 48 47 47 46 45 43 41 38 36 34 33 33 32 29 28 27 25 23 22 22 20 19 17 16 17 17 17 16 16 15 13 12 12 12 10 9 8 7 6 5 6 7 7 8 9 10 10 11 12 13 13 14 14 14 14 14 15 15 14 13 13 13 13 13 13 12 10 9 9
60 57 58 59 59 58 58 57 56 56 57 56 54 53 51 50 50 49 49 49 47 46 44 42 40 38 36 36 35 33 31 29 27 25 24 23 23 22 20 18 18 19 19 18 18 17 15 14 14 14 13 11 10 8 7 6 5 5 5 7 8 9 10 11 12 14 14 14 14 15 15 14 14 13 12 11 11 11 11 11 11 10 9 7 5
63 62 64 64 61 59 58 59 58 57 56 55 55 55 55 53 52 52 53 52 50 49 48 46 44 42 40 38 37 36 35 33 31 28 26 25 25 26 25 22 20 20 21 21 20 19 17 16 16 16 15 14 13 10 8 7 5 3 2 3 5 7 8 11 12 14 14 15 14 14 15 16 16 15 14 12 10 9 8 8 7 7 7 5 3
68 67 69 68 64 60 58 59 60 59 58 56 55 57 57 56 56 56 55 54 53 52 51 49 47 45 42 40 38 38 38 37 34 31 29 27 27 28 28 27 24 23 24 24 24 22 20 19 18 18 18 17 16 14 11 8 6 3 1 1 3 5 7 10 12 13 13 14 14 14 14 15 16 17 17 16 13 9 6 5 4 4 3 2 2
73 72 73 72 68 64 60 60 60 60 60 58 57 57 58 58 58 58 56 53 52 52 52 50 49 47 45 43 41 40 40 38 35 32 30 30 30 31 31 31 29 27 27 28 27 25 23 22 20 20 20 20 19 18 16 12 8 4 2 1 3 5 7 10 12 12 12 13 14 15 14 15 16 18 18 18 16 13 9 5 1 1 2 2 3
80 76 76 76 74 70 66 64 62 61 61 61 59 59 59 59 59 59 57 54 52 51 51 49 47 47 46 44 43 43 43 41 38 35 33 33 32 32 32 33 33 30 29 29 29 28 26 25 23 23 24 24 23 22 20 18 15 10 6 5 6 7 9 10 11 11 11 11 13 15 15 16 18 19 19 18 17 16 13 10 7 4 3 4 6
90 83 80 80 79 75 73 71 69 67 65 63 62 61 61 62 63 62 59 57 55 54 53 50 47 47 47 45 43 44 45 45 43 40 38 37 34 32 32 33 33 32 31 32 31 30 29 27 26 27 28 28 26 25 25 24 22 19 14 10 9 9 10 11 11 11 11 11 12 14 15 17 19 21 21 20 19 17 16 13 11 9 7 7 7
99 93 88 86 85 82 79 77 75 73 71 69 67 65 63 61 64 66 65 61 57 56 56 55 54 53 52 50 49 49 49 48 47 46 44 43 40 36 35 34 34 35 36 37 37 34 32 30 29 30 31 31 30 30 29 28 27 26 22 17 14 12 12 12 12 12 12 13 14 14 14 16 18 19 20 21 22 20 18 17 14 12 10 10 10
102 101 97 94 92 90 86 83 80 78 76 74 74 73 68 63 64 67 68 65 61 59 57 56 56 56 55 54 53 52 51 50 50 49 48 47 45 43 39 38 38 38 38 39 40 39 36 33 33 33 34 34 34 34 33 31 31 31 29 26 22 18 16 15 15 14 14 16 18 18 16 16 16 18 19 21 22 22 21 20 19 17 15 13 12
101 102 102 100 99 97 95 91 87 84 81 78 78 78 76 74 72 71 71 69 67 64 62 60 59 58 57 56 55 54 53 52 51 51 51 50 49 48 44 43 44 44 43 42 42 40 38 36 37 38 39 40 39 38 36 35 34 35 35 33 30 27 24 21 18 17 17 20 21 21 19 18 18 18 19 21 23 23 22 21 22 22 21 18 16
102 102 102 102 101 101 100 98 95 93 89 85 83 81 81 81 80 77 75 73 72 72 70 67 66 66 65 64 61 59 56 54 51 52 52 52 52 51 49 50 50 50 50 50 49 47 45 43 43 43 43 43 43 41 40 39 38 38 39 39 37 34 31 27 22 20 20 22 24 23 22 22 22 22 23 24 25 24 23 22 22 24 24 24 22
100 102 103 103 103 102 102 101 100 99 97 94 90 88 86 85 83 83 81 78 77 76 74 70 69 71 71 70 68 64 62 58 55 53 53 54 54 52 53 55 55 54 54 53 54 57 57 54 50 47 47 47 46 45 44 44 43 43 43 43 42 39 37 35 29 26 25 27 29 30 29 28 27 26 28 28 28 27 27 26 25 26 27 27 27
98 100 102 104 105 104 104 104 103 103 102 100 98 96 94 91 88 88 87 84 82 81 78 74 73 73 72 70 69 67 66 66 62 58 56 56 56 54 55 59 60 59 58 55 56 61 63 60 56 53 51 51 50 49 48 49 49 49 48 48 47 45 45 44 40 35 32 32 33 35 37 35 32 31 32 32 31 30 30 31 30 30 31 30 29
99 100 101 103 105 106 106 106 106 105 104 103 103 102 101 99 97 95 93 90 87 85 83 81 80 78 77 75 72 69 68 69 68 65 62 61 59 56 57 61 63 63 61 60 62 65 65 63 61 58 55 54 54 53 52 53 53 53 52 51 50 49 48 48 48 45 42 40 40 40 42 41 38 36 36 36 35 34 34 35 35 35 35 34 33
100 101 102 102 103 105 107 108 108 108 107 106 105 104 103 103 102 101 100 98 95 92 89 88 86 85 83 82 80 77 74 73 73 71 69 67 63 59 59 63 66 65 64 63 64 66 67 66 65 62 59 58 57 56 55 55 55 56 55 53 52 51 50 50 50 50 49 49 49 49 49 47 44 42 41 40 39 39 39 40 40 40 40 39 39
101 101 102 103 104 105 107 108 109 110 109 108 107 107 106 105 103 103 102 101 100 98 96 95 93 91 89 87 84 82 81 81 79 78 77 75 71 67 65 66 67 68 69 68 65 63 62 64 66 66 64 62 60 59 58 57 56 56 56 56 54 54 54 54 54 55 55 55 56 55 55 53 50 48 46 45 44 44 44 45 45 46 45 45 45
100 101 101 103 105 107 108 108 109 109 110 110 109 109 108 107 106 105 104 102 102 101 100 99 99 98 96 93 90 87 86 86 85 84 83 82 80 77 74 72 71 71 71 72 70 67 64 63 65 67 67 65 63 63 62 61 60 58 58 58 59 59 59 59 60 62 63 63 62 61 59 58 56 54 52 50 49 49 49 50 51 51 50 50 50
101 102 102 103 105 107 108 108 108 109 109 109 110 110 110 109 108 108 106 105 103 102 101 101 101 101 101 99 97 95 92 91 90 89 88 87 86 85 82 79 78 76 74 73 73 73 72 70 69 69 68 67 66 66 65 65 64 63 62 63 64 66 66 66 67 68 70 70 69 67 66 64 62 60 58 56 55 54 54 55 56 56 55 54 53
100 100 102 105 107 109 110 109 108 108 108 108 108 109 109 110 110 109 109 108 106 105 104 103 102 102 103 103 102 101 100 98 96 94 93 92 91 90 87 85 84 82 81 79 77 75 75 75 74 72 71 71 70 69 69 68 68 69 69 70 72 74 76 77 76 75 74 74 74 73 71 69 67 65 62 61 61 60 60 60 60 60 60 58 57
102 101 101 103 106 108 109 109 108 108 108 107 107 108 108 108 109 109 109 109 108 107 107 106 105 104 104 104 104 104 104 103 102 101 100 98 97 95 93 91 90 88 87 87 85 83 80 79 78 77 76 76 76 76 76 77 78 79 79 80 81 83 84 85 84 81 79 78 78 77 75 73 71 69 67 66 66 67 67 66 65 65 64 63 61
104 105 106 107 107 107 107 107 108 109 109 108 108 107 107 107 107 108 108 108 109 109 109 108 107 107 106 106 105 105 105 105 106 105 105 105 103 102 99 98 96 95 94 93 92 91 90 88 87 87 86 86 86 87 88 89 89 89 88 88 89 89 88 87 86 84 83 82 81 80 79 77 76 74 73 72 72 73 74 73 71 70 69 67 66
104 105 107 109 110 110 108 107 107 107 108 109 110 109 108 108 107 107 107 108 108 109 109 110 110 109 109 108 108 107 107 107 106 107 107 108 108 107 106 104 103 102 101 100 99 98 98 97 95 95 94 94 94 95 95 95 95 94 93 93 93 93 92 90 88 87 86 86 85 84 83 81 80 79 78 78 78 79 80 79 77 75 73 72 70
110 109 109 110 110 111 110 109 109 109 108 108 109 110 110 110 110 109 108 108 108 108 109 110 110 111 111 111 110 109 109 108 108 107 107 108 108 108 108 108 108 107 106 106 105 105 104 103 102 101 100 99 99 99 99 99 99 98 98 98 97 96 96 94 92 91 90 90 89 88 87 85 84 84 84 84 84 84 85 84 82 80 78 76 74
Wind_Direction
43 68 80 74 66 59 56 55 56 59 59 61 65 68 68 70 72 73 73 73 72 72 72 71 70 69 68 67 65 63 61 60 58 57 58 58 59 59 60 61 62 62 62 61 61 61 61 61 60 60 61 62 64 66 68 71 73 74 74 73 72 72 73 74 75 76 76 75 74 72 70 69 69 68 68 66 64 62 59 55 50 48 47 43 40
133 87 84 83 72 63 59 58 58 59 60 61 64 68 69 70 73 74 74 75 74 74 74 73 72 71 70 70 69 66 64 62 60 57 55 56 58 58 58 59 60 61 62 62 62 62 61 61 61 61 60 60 62 64 66 68 70 71 73 74 73 74 75 76 76 77 78 77 75 74 72 69 66 66 67 66 64 64 66 60 52 48 44 40 37
162 139 91 91 82 68 64 62 60 60 59 60 63 67 70 72 73 75 76 77 77 76 76 76 75 73 71 70 69 68 66 65 63 60 57 55 57 58 58 58 59 60 62 63 63 62 61 61 62 62 61 61 61 61 63 65 67 69 71 72 72 72 74 76 75 75 77 78 78 78 75 71 67 63 62 63 62 62 66 60 54 52 46 41 36
178 171 131 104 94 79 72 68 64 61 58 59 63 66 70 73 75 76 78 79 80 79 78 77 77 76 74 72 70 69 67 67 65 63 60 57 56 58 58 58 59 59 60 62 63 63 62 62 62 62 62 62 61 60 61 62 64 66 68 70 70 69 70 72 73 72 72 74 75 74 73 69 65 61 58 60 60 61 65 59 57 60 54 46 41
191 185 176 132 112 97 81 74 68 63 58 57 61 67 69 72 75 78 80 82 83 83 82 80 79 78 76 74 72 70 68 67 67 65 63 60 58 58 58 59 59 59 59 61 62 63 62 62 62 63 62 62 62 62 61 60 61 62 64 66 67 66 66 68 69 70 69 68 68 68 68 67 65 61 58 59 57 57 65 61 57 63 61 53 50
199 196 194 166 133 119 96 82 75 68 61 55 57 67 71 70 74 78 82 85 86 86 85 84 82 80 78 77 75 73 70 69 68 67 65 63 60 59 58 59 59 59 59 60 62 63 63 62 62 63 63 63 62 62 62 61 60 60 60 61 63 63 62 63 65 66 66 65 65 64 64 64 63 60 60 60 56 55 61 60 55 60 59 53 51
205 205 204 191 158 141 121 93 81 76 69 56 53 65 76 74 73 77 81 85 88 89 88 86 85 83 81 79 77 74 71 69 69 67 66 65 63 61 59 58 59 60 60 60 61 63 63 63 63 63 65 65 65 64 64 63 63 61 60 60 61 61 60 60 60 61 62 62 62 61 60 60 60 58 58 60 59 57 58 57 56 57 54 49 45
210 210 210 206 186 164 150 118 95 85 80 67 56 62 76 81 77 76 79 82 87 90 91 89 87 86 83 81 78 75 72 70 69 68 67 66 65 63 62 60 59 60 60 61 62 63 64 64 65 65 67 68 68 67 66 65 64 64 62 61 61 60 59 59 59 59 58 58 58 58 57 57 57 57 56 56 58 59 58 56 56 56 53 49 46
213 213 212 212 202 186 173 149 122 103 93 84 73 69 72 79 82 81 79 79 83 87 91 92 89 87 86 84 82 79 75 72 70 69 68 68 68 67 65 64 62 61 62 62 63 63 64 65 66 67 68 69 70 70 69 67 66 65 64 63 62 61 61 59 58 57 57 56 55 55 56 56 56 56 55 54 55 56 56 55 57 58 54 51 50
215 214 213 213 210 201 192 179 156 135 116 103 95 84 74 72 76 86 88 81 78 79 83 87 88 87 87 87 86 84 80 76 73 71 69 69 70 70 70 67 65 64 63 65 65 65 65 66 66 67 68 69 71 71 71 70 68 66 66 64 63 63 63 62 61 59 58 57 56 56 56 56 56 56 55 55 55 55 56 55 58 60 56 54 54
219 216 214 213 212 209 206 199 184 167 152 132 117 103 84 70 68 80 95 89 81 77 75 76 80 81 82 84 86 87 85 81 77 74 72 71 71 72 73 73 71 68 67 68 68 68 68 67 67 66 67 68 69 71 71 71 70 69 67 66 65 64 63 64 63 62 61 60 59 58 59 59 58 58 57 57 57 57 58 56 57 58 56 56 56
221 219 215 212 211 212 213 211 202 189 174 165 150 131 111 82 70 75 92 99 88 76 71 72 73 75 75 76 79 84 85 84 82 79 76 74 72 73 74 76 76 74 72 72 72 72 70 70 69 67 67 67 67 68 69 71 71 70 69 68 67 65 64 63 63 63 63 63 63 62 62 62 61 61 60 60 59 59 60 60 59 58 54 54 56
219 220 215 211 210 212 216 217 214 203 189 182 183 179 157 117 89 79 89 110 103 77 67 69 72 73 74 74 76 81 83 84 85 85 82 78 75 73 73 75 78 78 77 76 75 75 73 72 71 70 69 67 66 65 65 67 68 68 68 68 67 66 64 64 64 63 63 62 63 63 63 63 63 63 63 62 62 62 62 62 61 59 57 56 58
217 219 214 210 211 213 217 221 222 215 203 195 199 211 208 166 122 94 87 105 123 94 70 67 75 79 81 83 83 84 84 83 82 83 84 82 78 75 74 74 76 79 79 79 77 77 76 74 72 71 71 69 66 64 62 62 63 63 64 65 65 65 64 63 63 63 63 62 62 62 62 61 62 62 63 64 64 63 63 63 63 62 61 60 59
217 217 213 210 212 214 217 223 226 222 214 208 209 220 227 214 175 128 93 90 114 134 89 70 79 90 94 96 95 94 92 87 84 81 81 81 80 78 76 75 75 77 79 81 81 79 77 76 74 73 71 70 68 64 61 59 59 58 58 60 61 62 62 61 60 59 60 60 61 61 60 60 59 59 60 62 63 63 63 64 65 65 64 64 63
216 217 215 213 212 214 218 223 227 227 223 219 217 222 231 232 218 194 154 105 111 150 154 111 94 105 113 113 111 110 106 101 94 88 83 82 81 79 77 76 75 75 76 79 82 83 81 79 77 75 72 69 67 65 62 60 57 55 54 55 56 57 58 58 58 56 55 55 56 58 58 58 58 58 58 60 60 61 63 65 67 67 67 67 66
215 216 216 214 212 212 217 222 226 228 227 226 224 224 228 234 233 225 220 209 169 160 169 165 149 138 135 130 125 121 118 115 109 101 92 84 80 79 77 76 76 75 74 74 78 83 84 82 80 77 74 70 67 64 62 60 58 56 53 52 53 53 54 55 56 56 54 53 52 53 54 55 57 58 60 61 62 62 64 65 67 67 68 68 68
215 215 215 215 213 212 215 221 224 226 228 229 228 225 227 232 236 233 230 232 223 203 196 192 191 189 178 165 152 142 132 125 119 113 102 89 80 74 71 72 73 75 75 71 72 76 80 82 81 79 77 73 70 65 61 59 57 55 53 52 51 50 51 52 54 55 55 54 52 51 52 52 54 57 59 62 64 65 66 66 66 66 67 69 69
215 215 215 216 216 215 216 219 223 224 226 229 229 227 226 229 234 235 233 236 238 234 231 227 231 238 227 209 194 190 159 141 129 119 109 95 84 75 67 64 63 65 69 68 67 69 72 75 78 80 79 76 72 67 61 58 56 54 52 51 49 48 48 49 50 51 52 53 53 51 51 51 52 54 57 61 64 65 66 66 66 67 67 69 70
215 215 215 214 216 220 221 221 223 225 227 231 231 228 226 227 233 236 234 235 237 241 245 243 242 250 254 237 205 214 186 161 150 132 121 109 96 87 76 65 58 53 54 56 58 62 65 67 70 74 75 75 72 67 62 59 56 54 52 50 49 48 47 47 47 48 49 51 51 50 50 50 50 51 53 58 62 64 65 65 65 67 68 70 72
214 215 215 215 216 220 223 223 223 225 228 231 233 232 229 228 232 236 237 234 233 237 248 254 253 252 256 241 203 199 175 154 157 158 149 132 113 105 99 81 63 50 46 47 49 51 54 57 61 64 67 69 68 63 59 57 55 54 52 49 48 48 47 47 48 47 47 48 49 48 48 48 47 49 51 55 60 63 65 66 66 68 70 72 75
211 214 217 218 218 219 223 225 224 226 228 230 232 234 233 232 233 235 237 237 235 236 243 252 255 254 248 232 221 223 213 189 175 213 235 160 116 114 122 106 74 47 35 38 42 43 44 44 47 52 57 60 62 59 52 48 47 48 48 48 46 46 46 46 47 47 46 46 47 47 46 45 45 45 48 53 59 64 67 68 69 69 72 76 79
208 211 216 220 221 221 223 225 225 227 229 230 231 233 236 237 237 236 236 238 238 238 241 246 250 252 246 231 223 226 227 222 207 206 249 254 185 150 147 124 86 46 20 16 25 32 36 36 35 37 45 50 55 58 54 45 38 38 40 43 43 43 43 43 43 43 43 43 44 45 45 44 42 41 43 49 56 62 66 68 70 72 74 80 85
206 208 212 216 221 224 224 226 229 230 229 229 230 231 233 238 240 238 236 237 239 240 241 243 245 248 244 233 224 224 227 228 219 212 229 248 240 221 208 184 112 55 13 355 355 4 15 22 24 27 35 40 41 45 51 50 44 37 36 39 41 41 41 41 40 39 39 39 39 41 43 44 42 39 39 43 51 59 64 67 70 74 78 84 91
205 207 209 211 216 223 225 226 229 233 232 230 230 230 230 234 238 240 238 236 238 239 240 241 243 243 241 234 227 226 227 225 221 217 226 243 245 229 214 212 219 242 274 301 310 322 338 349 355 5 21 33 37 36 38 43 47 46 43 43 43 41 39 37 36 34 34 35 34 35 39 42 43 40 39 41 46 53 60 65 69 75 82 89 97
204 207 208 208 211 218 222 222 224 230 233 233 233 232 231 232 235 238 238 237 238 239 240 241 241 239 237 233 229 229 227 224 222 220 221 229 238 239 233 234 249 261 260 259 270 282 291 303 315 323 338 0 20 29 30 31 37 40 40 41 40 40 39 36 35 33 31 31 31 30 33 37 41 41 40 40 43 48 56 61 67 74 83 93 102
204 205 206 207 210 214 218 221 223 226 230 232 234 234 233 233 234 236 237 236 237 239 239 239 237 234 232 230 229 230 229 226 227 228 229 231 236 241 246 251 261 268 265 259 263 272 274 276 286 295 304 319 336 2 20 23 27 31 30 31 31 32 34 34 33 33 31 28 28 28 28 31 36 40 41 40 41 44 50 57 64 72 82 95 107
203 204 204 206 211 214 217 221 224 227 227 228 230 232 232 233 234 235 237 236 236 237 238 236 232 231 231 229 229 231 231 231 234 237 240 242 243 246 252 258 264 266 261 256 259 267 268 267 272 281 288 297 306 324 356 11 15 18 21 23 24 24 25 26 27 29 30 28 26 25 25 26 30 34 39 43 45 45 47 52 58 68 81 97 113
201 201 202 206 211 214 217 220 224 228 230 229 230 232 234 235 235 236 237 237 236 236 238 236 232 230 231 229 228 230 231 232 236 242 248 250 249 250 256 261 263 262 257 251 252 257 263 266 266 269 274 276 281 296 320 347 359 3 9 16 20 19 18 19 19 20 23 25 24 23 22 24 25 28 33 42 49 50 48 48 50 55 67 86 113
201 201 202 205 209 214 217 219 221 225 230 232 232 233 234 234 236 236 237 238 237 236 237 236 233 231 231 230 228 229 230 233 236 242 250 254 252 249 249 252 254 255 254 249 245 248 257 266 265 260 261 259 258 270 289 303 326 350 2 8 11 11 10 10 9 9 12 16 20 19 16 15 16 18 25 37 51 57 54 50 48 48 50 57 91
207 209 207 205 207 212 216 218 219 221 224 227 228 230 230 231 232 235 236 237 237 236 235 236 234 232 231 231 231 232 234 236 239 242 247 252 254 251 249 248 247 249 251 248 244 244 250 259 261 254 252 252 248 248 261 279 295 317 350 11 14 11 7 3 358 357 358 2 7 11 9 5 3 2 6 17 37 56 64 61 56 51 47 43 41
213 215 212 208 206 209 213 216 218 220 222 223 225 228 229 229 230 232 233 235 236 235 234 234 234 233 233 233 234 236 238 239 241 244 246 250 255 257 256 254 250 248 250 247 243 243 247 252 255 250 247 248 246 241 244 257 274 284 284 14 22 12 1 353 347 344 344 347 351 356 358 356 353 351 352 357 6 21 44 70 82 80 66 46 1
216 217 216 213 209 208 209 211 215 218 221 221 223 226 230 231 230 231 231 232 233 233 233 234 235 235 234 234 235 237 239 241 242 244 246 251 257 260 260 259 255 251 250 248 245 245 246 246 247 246 244 246 247 244 242 242 240 234 229 281 317 330 333 335 336 335 334 337 339 340 341 343 342 342 343 345 347 351 356 3 27 145 160 181 211
218 217 218 217 214 211 209 209 210 213 216 218 221 224 228 230 231 230 230 230 231 231 231 233 235 236 235 234 236 238 240 242 243 243 244 249 255 258 258 258 258 254 250 247 246 247 247 244 243 243 244 246 248 248 247 244 238 228 232 261 281 294 306 315 323 325 324 327 331 330 329 329 330 331 334 334 334 336 340 340 333 310 256 224 217
220 219 219 219 217 215 213 212 211 211 213 216 220 224 226 228 230 230 229 229 230 230 231 231 232 232 233 232 235 238 240 242 244 243 241 243 247 250 253 255 254 251 249 247 246 246 245 241 242 245 246 246 247 248 251 251 246 241 245 261 274 285 294 303 311 314 311 311 316 319 319 320 320 322 324 324 323 324 327 329 328 320 303 281 260
221 222 221 221 221 220 218 216 215 215 216 216 218 222 224 226 230 232 231 230 230 230 232 233 233 234 234 234 235 238 240 242 244 243 241 240 240 241 247 251 250 247 248 248 247 246 243 239 240 246 247 244 243 246 252 255 252 248 249 258 273 285 290 294 301 303 300 301 305 307 307 308 310 314 318 318 316 315 315 318 319 317 311 300 289
222 224 224 224 225 225 223 221 219 219 219 218 218 220 221 222 226 230 231 231 230 229 230 233 234 235 235 236 237 239 240 241 241 241 241 241 240 240 243 246 245 245 246 246 246 245 243 239 237 241 243 241 241 244 250 254 254 251 250 254 265 278 286 292 296 294 291 294 298 300 297 293 298 305 308 311 309 306 306 310 311 311 310 305 297
223 225 226 226 227 227 227 226 224 223 222 220 219 220 220 221 224 227 229 230 230 230 231 233 235 235 235 236 238 240 241 239 238 239 241 243 243 243 244 244 244 245 247 247 245 245 244 241 237 237 240 242 242 244 249 252 253 252 251 253 259 268 279 288 290 289 291 293 293 294 291 286 286 292 296 302 302 298 297 301 304 304 304 302 298
225 226 227 228 229 229 229 229 229 228 227 224 223 222 222 223 225 227 229 231 233 234 235 235 237 237 237 238 238 239 240 240 238 239 240 241 242 244 247 248 248 248 249 248 247 247 247 246 243 239 241 244 244 245 248 251 252 251 252 253 257 263 273 280 283 284 287 287 287 288 287 285 285 284 288 296 298 293 289 291 296 300 299 296 294
225 227 228 229 230 231 231 231 231 231 231 230 228 227 226 226 227 229 230 231 234 236 236 236 237 238 238 238 238 237 237 238 240 240 239 240 241 243 247 250 250 250 252 252 251 249 248 249 248 245 244 246 248 248 249 250 252 252 252 253 255 260 265 269 275 281 283 282 284 287 288 287 284 280 283 289 292 291 287 283 284 291 294 292 291
226 227 228 230 231 231 232 232 232 232 232 233 232 232 231 229 229 231 233 233 234 236 237 236 236 238 238 238 238 237 237 238 240 240 238 238 241 243 247 250 250 251 252 253 253 251 250 250 251 250 248 247 248 249 250 251 252 253 254 255 256 258 261 264 267 273 276 277 280 285 288 287 284 280 281 284 283 284 284 280 276 280 285 287 287
226 226 227 229 230 231 232 232 232 233 233 233 234 234 234 233 232 233 234 235 235 237 238 238 238 238 239 240 239 239 239 239 239 239 238 238 241 244 246 248 249 249 250 250 251 253 253 253 253 253 251 250 249 249 251 252 254 255 255 256 257 258 261 264 266 268 271 274 277 281 285 286 284 281 281 282 279 278 279 279 277 277 279 283 283
227 227 227 228 229 230 231 232 233 233 233 234 234 234 235 235 235 235 236 236 236 237 238 239 239 239 239 240 241 241 240 240 239 239 239 238 240 243 245 246 245 245 245 246 249 252 254 254 254 254 254 253 253 252 252 253 254 255 255 256 257 258 261 264 266 268 271 273 276 279 282 283 283 281 280 279 278 276 276 278 280 280 279 280 281
229 229 229 229 229 230 230 231 232 233 233 234 234 235 236 236 236 236 237 237 237 237 238 238 239 240 239 240 240 240 241 241 240 240 240 240 241 242 244 245 243 242 242 242 244 247 251 252 253 254 254 254 254 253 254 255 255 254 255 256 257 259 261 264 266 268 270 271 274 277 279 280 280 280 279 276 275 275 275 277 280 281 281 280 280
231 231 231 231 231 232 231 231 232 232 233 234 234 235 236 237 237 237 237 238 238 238 238 238 239 240 240 240 240 240 240 241 242 241 240 241 242 242 243 243 243 243 244 243 241 242 244 246 249 252 254 254 253 253 254 255 255 254 254 255 257 259 262 264 267 269 271 272 273 275 276 277 277 278 277 274 273 274 276 277 278 279 280 279 278
233 233 233 232 233 233 233 233 233 233 233 234 235 235 236 237 238 238 239 239 239 239 239 239 239 240 241 241 241 241 240 241 242 243 242 241 242 242 243 243 243 244 245 245 244 243 242 243 245 248 250 251 252 253 254 255 255 255 255 256 258 261 263 266 269 271 272 272 273 274 275 275 275 275 275 272 271 273 276 277 278 278 278 278 277
234 234 234 234 234 234 234 234 234 234 234 235 235 236 236 237 238 239 239 240 240 240 240 240 240 241 242 242 242 242 242 241 242 243 244 244 243 243 243 243 244 244 244 245 246 245 245 244 245 245 246 247 249 252 253 254 255 257 258 259 261 263 265 268 270 271 271 270 271 273 274 274 273 273 272 271 270 272 275 277 278 278 277 277 276
234 235 235 236 236 236 235 235 235 235 235 236 236 236 237 237 238 239 239 240 240 241 241 241 241 241 242 242 243 243 243 243 243 243 244 245 245 245 244 244 244 244 244 245 245 246 246 247 248 248 248 248 249 251 253 255 257 259 260 261 262 264 266 268 270 271 270 269 270 271 273 273 272 271 271 270 270 272 274 277 277 277 277 276 275
235 236 236 237 238 238 238 237 237 237 236 236 237 237 237 238 238 239 239 240 240 240 241 241 241 242 242 242 243 243 243 244 244 244 244 245 245 246 246 245 245 245 245 245 246 246 247 248 250 251 252 253 253 254 255 257 259 260 261 262 263 264 266 267 268 269 269 269 269 270 271 271 271 270 270 270 271 272 274 276 276 276 276 275 274
235 236 237 238 239 240 240 239 239 238 238 238 238 238 238 238 238 239 239 240 240 240 241 241 241 241 242 242 243 243 243 244 244 244 245 245 246 246 246 247 246 246 246 247 247 247 247 248 249 250 252 253 254 255 256 257 259 260 261 262 263 264 265 266 266 267 267 268 268 269 270 270 269 269 269 270 271 272 273 275 276 276 275 274 273
234 235 236 237 238 239 240 240 240 240 239 239 239 239 239 239 239 239 239 240 240 240 241 241 241 241 242 242 242 243 244 244 244 245 245 245 246 246 247 247 247 248 248 248 248 248 248 249 249 250 251 252 253 254 255 257 258 259 260 261 262 263 264 265 265 266 266 267 268 268 269 268 267 268 268 270 271 272 273 274 275 275 275 274 273
Height
11038 11038 11038 11037 11036 11035 11035 11034 11033 11033 11032 11031 11030 11029 11029 11028 11027 11027 11026 11026 11026 11025 11025 11024 11024 11023 11022 11021 11020 11020 11019 11018 11017 11016 11015 11014 11012 11011 11009 11008 11006 11005 11004 11002 11001 11000 10998 10997 10996 10995 10994 10992 10991 10989 10988 10987 10986 10985 10984 10984 10984 10983 10983 10982 10982 10982 10982 10982 10982 10983 10983 10983 10982 10982 10981 10980 10979 10979 10979 10978 10978 10978 10978 10977 10977
11038 11038 11039 11038 11038 11037 11036 11035 11035 11034 11033 11033 11032 11031 11030 11030 11029 11028 11028 11027 11027 11027 11026 11026 11025 11025 11024 11023 11022 11022 11021 11020 11019 11018 11017 11016 11015 11013 11012 11010 11008 11007 11006 11004 11003 11001 11000 10999 10998 10997 10995 10994 10993 10991 10990 10989 10988 10987 10986 10986 10986 10986 10985 10985 10984 10984 10984 10984 10984 10984 10984 10984 10983 10983 10982 10981 10980 10980 10980 10980 10980 10979 10979 10979 10979
11038 11038 11039 11039 11039 11038 11037 11037 11036 11035 11035 11034 11033 11032 11032 11031 11030 11030 11029 11029 11028 11028 11028 11027 11027 11027 11026 11025 11024 11023 11023 11022 11021 11020 11019 11018 11017 11015 11014 11012 11011 11009 11008 11006 11005 11003 11002 11001 10999 10998 10997 10996 10995 10993 10992 10991 10990 10990 10989 10988 10988 10988 10987 10987 10987 10986 10986 10985 10986 10985 10985 10985 10984 10984 10983 10982 10981 10981 10981 10981 10981 10981 10981 10982 10981
11038 11038 11039 11039 11040 11039 11038 11038 11037 11037 11036 11035 11035 11034 11033 11032 11032 11031 11030 11030 11030 11029 11029 11029 11028 11028 11027 11027 11026 11025 11024 11023 11022 11021 11021 11020 11019 11017 11016 11015 11013 11011 11010 11008 11006 11005 11004 11003 11001 11000 10999 10998 10997 10995 10994 10993 10993 10992 10991 10991 10990 10990 10990 10989 10989 10988 10988 10987 10987 10987 10986 10986 10985 10985 10984 10983 10983 10983 10982 10982 10982 10981 10982 10983 10982
11038 11038 11039 11039 11040 11040 11039 11039 11038 11038 11037 11036 11036 11035 11034 11034 11033 11032 11032 11031 11031 11030 11030 11030 11030 11029 11029 11028 11027 11026 11026 11025 11024 11023 11022 11021 11020 11019 11018 11017 11015 11014 11012 11010 11009 11007 11006 11005 11003 11002 11001 10999 10998 10997 10996 10996 10995 10994 10994 10993 10993 10993 10992 10992 10991 10990 10990 10989 10989 10988 10988 10987 10987 10986 10986 10985 10985 10984 10983 10983 10983 10982 10983 10983 10981
11037 11038 11038 11039 11040 11040 11040 11040 11039 11039 11038 11038 11037 11037 11036 11035 11034 11034 11033 11033 11032 11032 11031 11031 11030 11030 11030 11029 11029 11028 11027 11026 11025 11025 11024 11023 11022 11022 11020 11019 11018 11016 11014 11013 11011 11009 11008 11007 11005 11004 11003 11001 11000 10999 10998 10998 10997 10996 10996 10996 10995 10995 10995 10994 10993 10992 10992 10991 10991 10990 10989 10989 10988 10988 10987 10987 10986 10986 10985 10984 10984 10984 10984 10983 10982
11036 11037 11038 11039 11039 11040 11040 11040 11040 11039 11039 11038 11038 11038 11037 11037 11036 11035 11035 11034 11034 11033 11033 11032 11032 11031 11031 11030 11030 11029 11029 11028 11027 11026 11026 11025 11024 11024 11023 11022 11020 11019 11017 11016 11014 11012 11010 11009 11008 11007 11005 11004 11003 11002 11001 11000 10999 10999 10998 10998 10997 10997 10997 10996 10995 10995 10994 10993 10992 10992 10991 10990 10990 10990 10989 10989 10988 10988 10987 10987 10986 10985 10984 10984 10984
11035 11036 11037 11038 11039 11040 11040 11041 11041 11040 11040 11039 11039 11039 11039 11038 11037 11037 11036 11036 11035 11034 11034 11033 11033 11032 11032 11031 11031 11031 11030 11029 11029 11028 11027 11027 11026 11026 11025 11024 11023 11021 11020 11018 11017 11015 11013 11012 11010 11009 11008 11006 11005 11004 11003 11002 11002 11001 11000 11000 11000 10999 10999 10998 10997 10996 10996 10995 10994 10993 10993 10992 10991 10991 10991 10990 10990 10990 10990 10989 10987 10986 10986 10985 10984
11033 11035 11036 11037 11038 11039 11039 11040 11041 11041 11040 11040 11040 11040 11040 11039 11039 11038 11038 11037 11036 11036 11035 11034 11034 11034 11033 11033 11032 11032 11032 11031 11030 11029 11029 11028 11028 11027 11027 11026 11025 11024 11023 11021 11020 11018 11016 11015 11013 11012 11011 11009 11008 11006 11006 11005 11004 11003 11003 11002 11002 11001 11000 11000 10999 10998 10997 10997 10996 10995 10994 10994 10993 10992 10992 10992 10991 10991 10991 10990 10988 10988 10987 10986 10985
11031 11033 11035 11036 11037 11038 11038 11039 11040 11041 11041 11041 11041 11041 11041 11040 11040 11040 11039 11038 11037 11037 11037 11036 11035 11035 11035 11034 11034 11033 11033 11033 11032 11031 11030 11030 11029 11029 11028 11027 11026 11026 11025 11024 11022 11020 11019 11017 11016 11014 11013 11012 11010 11009 11008 11007 11006 11006 11005 11004 11004 11003 11002 11001 11000 11000 10999 10998 10998 10997 10996 10995 10994 10994 10993 10993 10992 10992 10991 10991 10990 10989 10988 10987 10986
11030 11032 11033 11034 11036 11037 11037 11038 11039 11040 11041 11041 11041 11041 11041 11041 11041 11041 11040 11039 11039 11038 11038 11037 11037 11037 11036 11036 11035 11035 11034 11034 11033 11032 11032 11031 11031 11030 11029 11029 11028 11027 11027 11026 11025 11023 11022 11020 11018 11017 11016 11014 11013 11012 11010 11009 11008 11008 11007 11006 11006 11005 11004 11003 11002 11001 11001 11000 10999 10999 10998 10997 10996 10995 10995 10994 10994 10993 10992 10992 10991 10990 10990 10988 10988
11027 11029 11031 11033 11034 11035 11036 11037 11038 11040 11041 11041 11041 11041 11041 11041 11041 11041 11041 11040 11040 11039 11039 11038 11038 11038 11038 11038 11037 11036 11036 11035 11035 11034 11033 11033 11032 11032 11031 11030 11030 11029 11028 11028 11027 11025 11024 11022 11021 11019 11018 11017 11016 11014 11013 11012 11011 11010 11009 11008 11007 11007 11006 11005 11004 11003 11003 11002 11001 11000 11000 10999 10998 10997 10996 10995 10995 10994 10993 10993 10992 10992 10991 10990 10989
11024 11027 11029 11031 11033 11034 11035 11036 11037 11038 11040 11040 11041 11041 11041 11041 11041 11041 11041 11041 11041 11040 11040 11039 11039 11039 11039 11039 11038 11038 11037 11037 11036 11036 11035 11034 11034 11034 11033 11032 11032 11031 11030 11029 11029 11027 11026 11025 11023 11022 11021 11020 11018 11017 11016 11014 11013 11012 11011 11010 11009 11009 11008 11007 11006 11006 11005 11004 11003 11002 11002 11000 10999 10998 10998 10997 10997 10996 10995 10994 10993 10993 10993 10991 10991
11022 11024 11027 11029 11031 11032 11033 11034 11035 11037 11039 11039 11040 11040 11041 11041 11041 11041 11042 11041 11041 11041 11041 11040 11040 11040 11040 11040 11039 11039 11038 11038 11038 11037 11036 11035 11035 11035 11034 11034 11034 11033 11032 11031 11030 11029 11028 11027 11026 11025 11023 11022 11021 11020 11019 11017 11016 11015 11014 11013 11011 11010 11010 11009 11009 11008 11007 11006 11005 11004 11004 11003 11002 11001 11000 10999 10998 10998 10997 10996 10995 10994 10994 10993 10992
11019 11022 11025 11027 11028 11030 11031 11032 11034 11036 11037 11038 11039 11040 11040 11041 11041 11041 11041 11041 11041 11041 11041 11041 11041 11041 11040 11040 11040 11039 11039 11038 11038 11038 11037 11036 11036 11035 11035 11035 11035 11035 11034 11033 11032 11031 11030 11029 11028 11027 11026 11024 11023 11022 11021 11020 11019 11018 11017 11015 11014 11013 11012 11011 11011 11010 11009 11008 11007 11006 11006 11005 11004 11003 11002 11001 11000 10999 10999 10998 10997 10996 10995 10994 10994
11016 11019 11022 11024 11026 11027 11029 11030 11032 11034 11035 11036 11037 11038 11039 11040 11041 11041 11041 11041 11041 11041 11041 11041 11041 11041 11041 11040 11040 11039 11038 11038 11038 11038 11038 11037 11037 11036 11036 11036 11036 11036 11035 11034 11033 11033 11032 11031 11030 11029 11028 11027 11026 11025 11024 11023 11022 11020 11019 11018 11017 11016 11014 11013 11013 11012 11011 11011 11010 11009 11008 11007 11006 11005 11004 11003 11002 11001 11001 11000 10999 10998 10997 10997 10996
11012 11015 11018 11021 11023 11025 11026 11028 11030 11032 11033 11034 11035 11037 11038 11039 11040 11041 11040 11040 11040 11040 11040 11040 11041 11041 11041 11040 11040 11039 11039 11038 11038 11038 11038 11038 11038 11037 11037 11037 11037 11037 11036 11036 11035 11034 11034 11033 11032 11031 11030 11029 11028 11027 11026 11025 11024 11023 11022 11021 11019 11018 11017 11016 11015 11014 11014 11013 11012 11011 11010 11009 11008 11007 11006 11005 11004 11004 11003 11002 11001 11000 11000 10999 10999
11008 11011 11015 11017 11020 11022 11024 11025 11027 11029 11030 11031 11032 11034 11036 11038 11039 11039 11040 11040 11040 11040 11040 11040 11040 11040 11040 11040 11040 11040 11040 11039 11038 11038 11038 11038 11038 11038 11038 11038 11037 11037 11037 11037 11036 11035 11035 11034 11033 11032 11032 11031 11030 11029 11028 11027 11026 11025 11024 11023 11022 11021 11020 11019 11018 11017 11016 11015 11014 11013 11012 11011 11010 11009 11008 11007 11006 11006 11005 11004 11004 11003 11002 11002 11001
11005 11009 11012 11014 11016 11019 11020 11022 11024 11025 11027 11028 11029 11032 11034 11036 11037 11038 11039 11039 11039 11039 11040 11040 11040 11040 11040 11040 11040 11040 11040 11040 11040 11039 11039 11038 11039 11039 11039 11039 11038 11038 11037 11037 11037 11036 11036 11035 11035 11034 11033 11032 11031 11030 11030 11029 11028 11027 11026 11025 11024 11023 11022 11021 11020 11019 11018 11017 11016 11014 11013 11012 11011 11011 11010 11009 11008 11007 11007 11006 11005 11005 11004 11004 11004
11002 11005 11008 11010 11013 11015 11017 11018 11020 11022 11023 11025 11027 11029 11032 11033 11034 11036 11037 11038 11038 11039 11039 11040 11040 11040 11040 11040 11040 11041 11041 11040 11040 11040 11039 11039 11039 11039 11039 11039 11039 11039 11038 11038 11037 11037 11036 11036 11035 11035 11034 11033 11033 11032 11031 11030 11029 11028 11028 11027 11026 11025 11024 11024 11022 11021 11020 11019 11018 11016 11015 11014 11013 11012 11011 11010 11010 11009 11008 11008 11007 11007 11007 11006 11006
10998 11002 11004 11006 11009 11011 11013 11015 11016 11019 11020 11022 11024 11026 11029 11031 11032 11033 11034 11036 11037 11037 11038 11039 11040 11040 11040 11041 11041 11041 11041 11041 11041 11040 11040 11039 11039 11040 11040 11040 11039 11039 11039 11039 11038 11038 11037 11037 11036 11035 11035 11034 11034 11033 11032 11031 11030 11030 11029 11028 11027 11027 11026 11025 11024 11023 11022 11021 11020 11019 11017 11016 11015 11014 11013 11012 11011 11011 11010 11010 11009 11009 11009 11009 11008
10994 10997 11001 11003 11005 11007 11009 11011 11013 11015 11017 11019 11021 11023 11025 11027 11029 11030 11032 11034 11035 11036 11037 11038 11039 11039 11041 11041 11041 11041 11041 11041 11041 11041 11040 11040 11040 11040 11040 11040 11040 11039 11039 11039 11039 11038 11038 11037 11037 11036 11035 11035 11034 11034 11033 11032 11032 11031 11030 11029 11028 11028 11027 11026 11025 11025 11024 11023 11022 11021 11019 11018 11017 11016 11015 11014 11013 11013 11012 11012 11011 11011 11011 11011 11010
10989 10994 10997 10999 11001 11003 11005 11007 11009 11011 11013 11016 11017 11019 11021 11023 11025 11027 11030 11031 11032 11034 11035 11037 11038 11038 11039 11040 11040 11039 11039 11040 11040 11040 11041 11040 11040 11040 11040 11040 11040 11040 11040 11039 11039 11039 11038 11038 11037 11036 11036 11035 11035 11034 11033 11033 11032 11032 11031 11030 11029 11029 11028 11027 11026 11026 11025 11024 11023 11022 11021 11020 11019 11018 11017 11016 11015 11015 11014 11014 11014 11013 11013 11013 11013
10985 10990 10992 10993 10996 10999 11001 11004 11007 11008 11009 11011 11013 11015 11018 11019 11021 11024 11027 11028 11029 11031 11033 11035 11036 11036 11037 11038 11038 11038 11038 11038 11039 11039 11040 11040 11039 11039 11039 11039 11040 11040 11040 11040 11039 11039 11039 11038 11037 11037 11036 11036 11035 11034 11034 11033 11033 11032 11031 11030 11030 11029 11028 11028 11027 11026 11026 11025 11024 11024 11023 11022 11021 11020 11019 11018 11017 11017 11016 11016 11016 11016 11015 11015 11015
10981 10984 10985 10988 10992 10995 10998 11001 11003 11003 11005 11006 11009 11012 11014 11015 11017 11020 11023 11025 11026 11028 11030 11031 11032 11033 11034 11035 11036 11036 11036 11036 11037 11037 11038 11038 11038 11038 11038 11038 11039 11039 11040 11040 11040 11039 11039 11039 11038 11037 11037 11036 11035 11035 11034 11034 11033 11032 11031 11031 11030 11029 11029 11028 11027 11027 11026 11026 11025 11025 11024 11023 11022 11022 11021 11020 11019 11019 11019 11019 11018 11018 11018 11018 11018
10976 10979 10980 10983 10987 10989 10993 10996 10998 10999 11000 11002 11005 11008 11010 11012 11014 11017 11019 11021 11022 11024 11026 11028 11029 11030 11031 11033 11034 11034 11035 11035 11035 11035 11035 11036 11037 11037 11037 11038 11038 11038 11039 11039 11039 11039 11039 11039 11038 11038 11037 11036 11036 11035 11035 11034 11033 11033 11032 11031 11031 11030 11029 11028 11028 11027 11027 11026 11026 11026 11025 11025 11024 11023 11023 11022 11022 11021 11021 11021 11021 11021 11021 11021 11021
10971 10974 10976 10980 10982 10985 10988 10990 10992 10994 10996 10999 11002 11004 11006 11008 11010 11013 11014 11016 11018 11020 11022 11025 11027 11028 11028 11029 11030 11031 11032 11032 11032 11032 11033 11034 11035 11035 11036 11037 11037 11038 11038 11039 11039 11039 11039 11038 11038 11038 11038 11037 11036 11036 11035 11034 11034 11033 11032 11032 11032 11031 11030 11029 11029 11028 11028 11027 11027 11026 11026 11026 11025 11025 11024 11024 11024 11024 11023 11023 11023 11023 11023 11023 11023
10967 10969 10972 10975 10977 10978 10981 10983 10985 10987 10989 10994 10996 10998 11001 11003 11006 11008 11009 11011 11014 11016 11019 11021 11023 11024 11024 11025 11027 11028 11029 11030 11030 11030 11031 11032 11033 11034 11034 11035 11036 11036 11037 11037 11038 11038 11038 11038 11038 11038 11038 11038 11037 11036 11035 11035 11034 11033 11033 11032 11032 11032 11031 11031 11030 11029 11029 11028 11028 11028 11027 11027 11027 11026 11026 11025 11025 11025 11025 11025 11025 11025 11025 11024 11024
10962 10965 10967 10967 10968 10971 10975 10977 10979 10980 10983 10988 10990 10993 10996 10998 11000 11003 11005 11006 11009 11012 11015 11017 11019 11020 11021 11022 11023 11024 11026 11027 11027 11028 11028 11030 11031 11031 11032 11033 11034 11034 11035 11036 11036 11036 11036 11036 11037 11037 11037 11037 11036 11036 11035 11035 11034 11033 11033 11032 11032 11032 11032 11032 11031 11030 11030 11029 11029 11029 11028 11028 11027 11027 11027 11026 11026 11026 11026 11027 11027 11027 11027 11027 11026
10960 10960 10957 10957 10961 10965 10969 10972 10975 10977 10979 10983 10986 10990 10992 10993 10995 10998 10999 11001 11003 11007 11010 11012 11014 11016 11017 11018 11020 11021 11022 11024 11024 11025 11026 11027 11028 11029 11030 11030 11031 11032 11033 11033 11034 11034 11034 11035 11035 11036 11036 11036 11035 11035 11035 11035 11034 11033 11032 11032 11032 11032 11032 11032 11031 11031 11031 11030 11030 11029 11029 11029 11028 11028 11028 11027 11027 11027 11027 11028 11028 11028 11029 11029 11029
10954 10951 10947 10950 10956 10959 10963 10967 10971 10973 10974 10975 10979 10983 10985 10986 10988 10991 10992 10994 10998 11002 11004 11006 11009 11011 11013 11015 11016 11018 11019 11020 11021 11022 11023 11024 11025 11026 11027 11027 11028 11029 11030 11030 11031 11032 11032 11033 11034 11034 11034 11034 11034 11034 11034 11034 11033 11033 11032 11032 11031 11031 11031 11031 11031 11031 11031 11031 11031 11030 11030 11029 11029 11029 11028 11028 11028 11028 11028 11028 11028 11029 11029 11030 11030
10939 10937 10939 10945 10950 10953 10957 10961 10965 10968 10968 10969 10972 10975 10977 10980 10982 10984 10986 10989 10992 10996 10999 11002 11004 11006 11009 11011 11013 11015 11016 11017 11018 11019 11020 11021 11021 11022 11023 11024 11025 11026 11026 11027 11028 11029 11030 11031 11031 11032 11032 11032 11033 11033 11033 11033 11032 11032 11032 11031 11031 11031 11031 11031 11031 11031 11031 11031 11031 11031 11030 11030 11029 11029 11029 11029 11029 11029 11029 11028 11028 11028 11029 11029 11030
10924 10926 10931 10937 10943 10946 10950 10954 10958 10961 10963 10965 10967 10969 10971 10974 10976 10978 10982 10985 10988 10992 10994 10997 10999 11002 11005 11007 11009 11011 11012 11013 11014 11015 11016 11017 11017 11018 11019 11020 11022 11023 11023 11024 11025 11026 11027 11028 11028 11029 11029 11029 11030 11031 11031 11031 11031 11031 11030 11030 11030 11030 11030 11031 11031 11031 11031 11031 11031 11031 11031 11030 11029 11029 11029 11029 11029 11029 11029 11029 11028 11028 11028 11028 11029
10916 10918 10923 10928 10934 10939 10944 10947 10951 10955 10957 10960 10962 10963 10966 10969 10971 10974 10977 10981 10984 10987 10990 10993 10996 10999 11001 11004 11006 11006 11007 11008 11010 11011 11012 11013 11014 11015 11015 11016 11017 11018 11019 11020 11021 11022 11024 11024 11025 11025 11025 11026 11027 11028 11028 11029 11029 11029 11029 11029 11029 11029 11029 11029 11030 11030 11030 11031 11031 11031 11030 11030 11029 11029 11028 11028 11028 11028 11029 11029 11029 11028 11028 11027 11027
10909 10912 10916 10920 10926 10931 10936 10940 10944 10947 10950 10953 10956 10959 10961 10963 10965 10969 10972 10975 10978 10981 10984 10987 10990 10993 10996 11000 11001 11000 11000 11003 11004 11005 11007 11008 11009 11010 11011 11012 11013 11014 11015 11016 11017 11018 11020 11021 11022 11022 11022 11023 11024 11024 11025 11026 11026 11026 11026 11027 11027 11027 11027 11027 11028 11029 11029 11029 11030 11030 11030 11030 11029 11029 11028 11028 11028 11028 11028 11028 11028 11028 11028 11027 11026
10902 10906 10909 10913 10917 10923 10928 10932 10936 10939 10942 10946 10949 10953 10957 10961 10962 10964 10966 10969 10972 10975 10977 10980 10983 10986 10989 10993 10993 10993 10994 10997 10999 11000 11001 11002 11004 11005 11006 11008 11009 11010 11010 11011 11012 11014 11015 11017 11018 11019 11019 11018 11019 11020 11021 11022 11023 11024 11024 11024 11024 11024 11025 11025 11026 11027 11027 11028 11028 11029 11029 11029 11028 11028 11028 11028 11027 11027 11027 11027 11027 11027 11027 11027 11026
10896 10899 10903 10907 10910 10914 10918 10924 10928 10932 10935 10939 10942 10946 10953 10956 10955 10955 10959 10963 10966 10968 10970 10973 10975 10979 10982 10984 10985 10986 10988 10990 10992 10994 10996 10997 10999 11000 11000 11002 11004 11004 11004 11006 11007 11008 11010 11012 11014 11015 11014 11013 11014 11016 11017 11018 11019 11020 11020 11021 11021 11021 11022 11022 11023 11024 11025 11025 11026 11026 11027 11027 11027 11027 11027 11027 11026 11026 11026 11025 11025 11025 11026 11026 11026
10889 10892 10896 10900 10903 10906 10910 10915 10919 10923 10926 10930 10934 10939 10944 10945 10944 10946 10952 10956 10959 10961 10963 10965 10969 10972 10974 10976 10978 10980 10982 10984 10986 10989 10990 10992 10992 10993 10994 10995 10996 10997 10998 10999 11001 11003 11005 11007 11008 11009 11008 11008 11009 11011 11012 11014 11015 11016 11016 11017 11017 11018 11019 11019 11020 11021 11022 11022 11022 11022 11024 11024 11024 11025 11025 11025 11025 11025 11024 11024 11024 11023 11024 11024 11024
10881 10885 10888 10891 10895 10898 10901 10906 10910 10913 10917 10922 10925 10930 10933 10935 10938 10941 10945 10949 10952 10953 10956 10960 10963 10964 10965 10966 10969 10973 10975 10978 10981 10983 10985 10985 10985 10987 10988 10988 10989 10990 10991 10992 10994 10996 10998 11000 11001 11003 11003 11003 11004 11007 11008 11009 11010 11011 11011 11012 11013 11015 11016 11016 11017 11018 11019 11020 11018 11019 11021 11022 11021 11022 11022 11022 11022 11022 11022 11022 11022 11021 11021 11021 11021
10871 10875 10879 10881 10885 10888 10892 10897 10900 10903 10908 10912 10916 10920 10923 10927 10931 10933 10935 10940 10944 10945 10949 10954 10955 10954 10954 10957 10961 10966 10969 10972 10975 10977 10978 10978 10979 10981 10982 10981 10983 10985 10985 10986 10986 10987 10989 10992 10995 10997 10998 10998 10999 11001 11003 11004 11005 11005 11006 11007 11008 11011 11013 11013 11013 11014 11016 11017 11015 11015 11016 11018 11018 11018 11018 11018 11019 11019 11019 11019 11019 11019 11019 11019 11019
10859 10863 10867 10869 10872 10876 10880 10885 10889 10893 10898 10902 10906 10909 10913 10917 10922 10924 10926 10931 10935 10937 10940 10944 10945 10944 10945 10949 10954 10959 10963 10965 10967 10970 10972 10972 10973 10975 10976 10976 10977 10979 10980 10980 10978 10977 10981 10986 10989 10991 10992 10992 10993 10995 10996 10998 10999 11000 11001 11002 11003 11005 11006 11007 11009 11010 11012 11012 11011 11011 11011 11012 11013 11014 11013 11014 11014 11014 11015 11015 11015 11015 11016 11016 11016
10844 10849 10853 10855 10858 10862 10866 10871 10876 10880 10885 10890 10894 10897 10901 10906 10911 10914 10917 10921 10926 10928 10931 10933 10935 10936 10937 10941 10945 10950 10955 10957 10958 10961 10964 10965 10967 10969 10970 10970 10970 10973 10975 10973 10969 10968 10974 10979 10982 10984 10985 10986 10987 10988 10989 10991 10992 10993 10994 10995 10996 10998 10999 11000 11002 11004 11005 11006 11006 11006 11006 11006 11008 11008 11009 11009 11010 11010 11010 11010 11010 11010 11010 11011 11012
10831 10835 10839 10842 10846 10849 10852 10857 10862 10867 10872 10877 10881 10885 10889 10893 10898 10903 10906 10911 10916 10919 10920 10922 10924 10926 10929 10932 10936 10942 10946 10948 10950 10953 10955 10957 10960 10963 10964 10964 10963 10965 10967 10966 10963 10962 10966 10970 10973 10976 10979 10980 10981 10981 10982 10983 10985 10986 10987 10988 10989 10991 10992 10993 10994 10996 10997 10998 10999 10999 11000 11001 11002 11003 11003 11004 11004 11004 11004 11004 11004 11004 11004 11005 11005
10822 10826 10830 10833 10834 10835 10838 10843 10848 10853 10859 10864 10868 10872 10877 10881 10886 10890 10895 10899 10904 10908 10910 10911 10913 10916 10919 10922 10927 10932 10935 10936 10939 10943 10945 10948 10952 10955 10957 10958 10957 10957 10959 10960 10959 10958 10959 10962 10965 10968 10971 10972 10974 10975 10975 10976 10977 10978 10979 10980 10982 10983 10984 10986 10987 10988 10990 10991 10991 10992 10994 10995 10996 10997 10998 10998 10998 10998 10999 10999 10999 10999 10999 10998 10999
10811 10815 10820 10823 10823 10824 10828 10833 10837 10841 10847 10852 10856 10861 10865 10869 10873 10877 10882 10886 10891 10895 10899 10901 10902 10904 10908 10912 10916 10922 10924 10925 10928 10931 10935 10938 10941 10944 10947 10950 10950 10950 10951 10952 10953 10954 10954 10955 10957 10960 10962 10964 10966 10967 10968 10968 10969 10970 10972 10973 10974 10975 10976 10978 10979 10981 10982 10983 10984 10985 10986 10988 10989 10990 10991 10991 10992 10992 10992 10993 10993 10993 10993 10993 10993
10798 10802 10806 10809 10810 10811 10817 10822 10827 10832 10837 10841 10845 10849 10853 10857 10861 10865 10870 10875 10879 10883 10887 10890 10891 10893 10896 10900 10905 10909 10913 10915 10917 10919 10923 10927 10930 10933 10937 10940 10942 10944 10944 10945 10945 10946 10947 10948 10950 10952 10955 10956 10958 10959 10960 10961 10961 10962 10963 10964 10965 10966 10968 10969 10970 10972 10973 10975 10975 10976 10978 10979 10981 10982 10983 10983 10984 10984 10985 10985 10986 10986 10986 10987 10987
10785 10789 10793 10795 10796 10798 10804 10811 10816 10822 10826 10830 10834 10838 10842 10846 10850 10853 10858 10862 10867 10871 10875 10878 10881 10883 10885 10889 10893 10897 10901 10905 10908 10909 10911 10914 10917 10922 10927 10930 10932 10935 10936 10937 10938 10938 10939 10940 10941 10944 10946 10948 10949 10950 10951 10952 10953 10954 10955 10956 10957 10958 10959 10960 10961 10963 10964 10966 10967 10968 10969 10970 10972 10974 10975 10975 10975 10976 10976 10977 10978 10978 10979 10979 10980
10773 10776 10779 10781 10783 10786 10792 10800 10805 10810 10814 10819 10823 10827 10831 10835 10838 10842 10845 10849 10854 10858 10862 10865 10869 10872 10874 10877 10880 10884 10888 10892 10896 10900 10901 10902 10904 10909 10914 10918 10921 10923 10925 10927 10928 10929 10930 10932 10933 10934 10936 10939 10940 10941 10942 10943 10944 10945 10947 10948 10949 10949 10950 10951 10952 10953 10955 10956 10957 10958 10959 10960 10961 10963 10965 10966 10966 10967 10967 10968 10969 10970 10970 10971 10972
10761 10764 10767 10769 10771 10774 10781 10788 10794 10798 10802 10807 10811 10815 10819 10823 10826 10829 10833 10836 10840 10844 10848 10852 10855 10859 10862 10865 10868 10871 10874 10878 10882 10886 10889 10891 10893 10896 10900 10905 10908 10911 10914 10916 10918 10919 10921 10922 10924 10925 10926 10928 10929 10930 10931 10933 10934 10936 10937 10938 10939 10939 10940 10942 10943 10944 10945 10946 10947 10948 10949 10950 10951 10952 10953 10955 10956 10957 10957 10958 10960 10960 10961 10962 10962
10748 10751 10754 10757 10759 10763 10769 10776 10782 10786 10790 10794 10798 10802 10805 10809 10813 10816 10820 10823 10827 10831 10834 10838 10841 10845 10849 10852 10855 10858 10861 10865 10868 10872 10875 10878 10880 10883 10887 10891 10894 10898 10901 10903 10906 10908 10909 10912 10913 10914 10916 10917 10917 10917 10919 10921 10923 10925 10927 10928 10928 10929 10930 10931 10932 10933 10934 10935 10937 10938 10939 10940 10941 10941 10942 10943 10944 10945 10946 10947 10949 10950 10951 10952 10953
10733 10736 10740 10743 10746 10750 10756 10761 10767 10772 10776 10781 10784 10788 10792 10796 10799 10803 10807 10810 10814 10817 10821 10824 10827 10831 10835 10838 10842 10845 10849 10852 10855 10858 10862 10865 10867 10870 10874 10877 10880 10883 10887 10889 10892 10894 10897 10899 10902 10903 10904 10905 10905 10905 10907 10909 10911 10913 10915 10916 10917 10918 10919 10920 10921 10922 10923 10924 10925 10926 10928 10929 10930 10931 10932 10932 10933 10934 10935 10936 10937 10939 10940 10941 10942